Temperature
14 11 10 11 12 13 14 13 12 10 8 6 4 3 3 3 3 2 2 3 3 3 3 3 4 4 4 4 3 3 3 3 2 2 2 2 2 2 2 2 3 3 4 4
11 11 11 12 11 12 13 12 12 9 8 5 3 3 3 3 2 2 2 2 2 2 2 3 3 2 2 2 1 1 0 -1 -1 -1 -1 -1 -0 0 1 1 2 2 2 2
11 12 12 12 10 11 12 13 12 10 6 5 4 3 3 3 2 2 2 2 2 1 1 1 1 0 0 -0 -1 -1 -2 -2 -3 -3 -2 -2 -1 -1 -0 0 1 1 1 2
11 12 11 11 10 10 11 12 11 10 7 5 5 3 2 2 2 2 2 2 1 1 0 -0 -1 -1 -2 -2 -3 -3 -3 -3 -3 -3 -3 -3 -4 -4 -3 -3 -1 -0 0 1
12 11 10 11 11 10 10 9 9 9 7 6 6 4 2 2 2 1 1 2 1 0 -0 -1 -2 -3 -4 -4 -4 -4 -4 -4 -4 -4 -4 -4 -5 -5 -5 -5 -4 -4 -3 -2
11 11 10 10 10 10 8 9 9 7 7 8 6 5 2 1 2 1 1 1 1 -0 -1 -2 -3 -4 -5 -5 -5 -5 -6 -6 -6 -5 -5 -5 -6 -6 -6 -6 -6 -6 -6 -5
11 11 10 10 10 9 7 8 8 9 8 8 4 3 1 2 2 2 1 1 0 -1 -2 -3 -4 -5 -6 -6 -6 -6 -7 -7 -7 -7 -6 -7 -7 -7 -7 -7 -7 -6 -6 -6
11 10 9 8 9 9 8 8 8 8 7 6 4 3 1 2 2 2 2 1 -1 -2 -3 -4 -5 -6 -6 -7 -7 -7 -7 -8 -8 -8 -8 -8 -8 -8 -8 -7 -7 -7 -6 -6
9 10 9 8 9 9 9 6 7 6 5 4 4 2 2 2 1 2 1 0 -1 -3 -4 -5 -6 -6 -7 -8 -8 -8 -8 -8 -8 -9 -9 -9 -8 -8 -8 -7 -7 -7 -7 -7
8 8 9 7 9 7 6 6 4 6 6 6 5 3 1 1 -0 -0 0 -0 -1 -3 -4 -5 -6 -7 -7 -9 -9 -9 -9 -9 -9 -9 -9 -9 -9 -9 -8 -8 -7 -7 -7 -7
7 7 8 7 7 7 7 6 4 3 4 4 3 3 1 1 0 -1 -0 -1 -2 -4 -5 -6 -7 -7 -8 -9 -9 -9 -9 -10 -10 -10 -10 -10 -10 -9 -9 -8 -8 -8 -7 -7
5 5 6 7 7 5 6 6 5 4 4 2 1 2 2 1 1 0 -0 -1 -3 -4 -5 -6 -7 -8 -9 -9 -10 -10 -10 -10 -10 -10 -10 -10 -10 -10 -9 -9 -9 -8 -8 -7
6 5 8 8 7 5 5 5 5 3 2 1 1 2 2 0 1 1 -0 -2 -3 -5 -6 -7 -8 -9 -9 -10 -10 -10 -11 -11 -11 -11 -11 -11 -11 -11 -10 -10 -10 -9 -9 -8
5 4 6 9 7 5 4 5 4 2 1 1 0 0 1 -0 -1 0 -1 -3 -4 -6 -7 -8 -9 -9 -10 -10 -10 -11 -11 -11 -12 -12 -12 -12 -12 -12 -11 -11 -10 -10 -9 -9
4 4 5 4 3 3 4 4 3 2 2 1 1 0 0 -1 -1 -0 -2 -4 -5 -7 -8 -8 -10 -10 -10 -10 -10 -11 -11 -12 -13 -13 -13 -13 -13 -13 -12 -12 -11 -11 -10 -10
3 4 4 4 2 2 3 3 2 2 2 1 0 -0 0 1 0 -1 -3 -5 -7 -8 -8 -9 -10 -10 -11 -11 -12 -12 -12 -13 -13 -13 -13 -13 -13 -13 -13 -13 -13 -12 -11 -10
1 3 4 3 1 2 2 2 2 2 2 1 -0 -0 0 -1 -1 -3 -5 -6 -8 -8 -9 -10 -10 -10 -11 -12 -12 -13 -13 -13 -14 -14 -14 -14 -14 -14 -14 -14 -13 -13 -12 -11
1 2 1 1 1 4 3 2 2 2 1 0 0 -0 0 -1 -2 -3 -6 -7 -7 -8 -10 -10 -10 -11 -11 -12 -13 -13 -13 -14 -14 -14 -14 -14 -14 -14 -14 -14 -14 -13 -13 -12
1 1 0 -1 1 1 2 2 2 1 1 1 0 0 -0 -2 -2 -5 -6 -7 -8 -9 -10 -10 -10 -11 -12 -12 -13 -13 -14 -14 -14 -14 -14 -15 -15 -15 -15 -15 -14 -14 -13 -13
-0 -1 -2 -2 2 4 3 2 2 1 -0 1 1 -0 -1 -3 -4 -5 -6 -7 -8 -9 -9 -10 -10 -11 -12 -13 -13 -14 -14 -14 -14 -14 -14 -15 -15 -15 -15 -15 -15 -14 -14 -14
1 -0 -1 -2 -1 0 1 2 1 0 0 1 1 -1 -2 -4 -5 -6 -7 -7 -8 -8 -9 -9 -10 -11 -12 -13 -13 -14 -14 -14 -14 -14 -14 -14 -15 -15 -15 -15 -15 -15 -14 -14
1 -1 -1 -2 -1 0 1 0 -0 1 1 1 -0 -2 -3 -5 -6 -7 -7 -7 -8 -8 -9 -9 -10 -10 -12 -13 -13 -14 -14 -14 -14 -14 -14 -14 -14 -15 -15 -15 -15 -15 -15 -15
-0 0 -1 -0 1 1 2 2 2 2 1 -0 -1 -2 -4 -5 -7 -7 -7 -8 -8 -9 -9 -10 -10 -10 -11 -12 -13 -14 -14 -14 -14 -14 -14 -14 -14 -14 -15 -15 -15 -15 -15 -15
-1 -0 -2 -1 -1 1 2 2 1 1 0 -1 -2 -3 -4 -6 -7 -7 -7 -8 -8 -8 -9 -9 -10 -10 -11 -12 -13 -13 -14 -14 -14 -14 -14 -14 -14 -14 -14 -15 -15 -15 -15 -15
-0 -2 -2 -1 -0 1 1 1 1 0 -0 -1 -3 -4 -5 -6 -7 -7 -8 -8 -8 -8 -9 -9 -10 -10 -11 -11 -12 -13 -13 -14 -14 -13 -13 -13 -14 -14 -14 -14 -15 -15 -15 -15
-1 -2 -1 -0 1 1 1 1 1 0 -1 -2 -4 -4 -5 -6 -7 -7 -8 -8 -8 -9 -9 -9 -10 -10 -11 -11 -12 -12 -13 -13 -13 -13 -13 -14 -14 -15 -15 -15 -15 -14 -15 -15
Wind_Speed
8 9 6 6 3 3 4 4 4 5 6 8 14 13 8 6 9 12 13 13 14 12 10 10 13 15 16 17 18 19 20 19 17 15 15 15 14 12 11 12 19 21 21 21
8 8 6 3 5 6 6 6 5 6 8 8 12 10 6 6 7 7 9 10 11 12 14 15 16 17 18 16 16 17 18 18 16 16 14 14 14 12 11 15 19 20 21 21
8 3 6 5 9 8 4 4 3 5 6 7 9 5 3 3 3 5 7 8 9 13 12 12 14 15 17 16 17 18 18 18 16 17 14 15 13 12 12 14 14 18 23 21
6 6 6 8 7 6 3 1 3 6 7 6 7 4 5 2 4 8 9 10 11 12 10 11 14 17 18 18 17 17 18 18 17 18 17 19 15 15 16 14 14 17 21 20
5 6 7 7 5 5 6 5 2 3 6 5 2 3 3 1 4 7 8 10 11 11 10 10 13 15 17 17 17 17 17 17 17 17 18 18 17 15 15 16 16 15 14 15
5 3 4 3 4 3 5 4 3 5 4 2 1 5 3 1 1 5 7 10 11 11 9 9 11 11 13 14 16 17 18 17 17 18 18 18 19 20 20 20 18 16 14 13
7 5 7 5 7 9 10 8 7 8 5 3 1 3 4 4 2 3 7 10 11 10 9 10 12 13 15 16 17 18 19 18 17 17 18 18 19 19 19 19 18 18 16 16
4 4 7 7 4 3 5 6 5 2 6 6 1 2 4 5 3 4 7 9 9 9 8 9 10 11 13 15 17 18 19 19 19 18 18 16 17 15 15 18 17 17 15 17
4 3 5 5 5 3 4 4 1 4 3 5 3 1 2 2 6 8 9 9 9 8 9 9 9 11 13 14 15 17 18 19 19 19 18 15 16 16 17 18 17 15 16 18
1 4 5 6 6 8 6 5 5 3 4 7 6 3 3 4 9 9 10 10 9 9 9 9 10 12 14 13 12 14 16 17 17 18 16 17 16 16 17 17 18 19 19 19
3 1 6 5 5 5 4 4 5 3 2 3 6 4 6 4 6 9 10 9 8 10 11 9 9 10 13 12 12 13 16 17 18 18 17 17 16 17 17 16 18 18 18 20
3 3 2 2 1 2 4 4 4 1 3 3 3 5 4 2 6 8 10 8 7 8 9 8 8 10 12 12 12 14 15 16 17 17 17 17 17 18 17 17 18 19 19 19
3 3 3 3 1 4 4 1 2 4 3 3 3 6 2 4 7 8 9 8 7 9 9 8 8 10 12 12 12 13 14 15 16 16 16 17 17 18 18 18 18 18 19 19
4 3 3 4 5 3 4 2 2 5 3 4 6 8 9 11 10 12 10 7 8 10 10 11 10 10 11 12 12 13 13 14 16 16 16 16 17 17 17 17 18 18 18 18
4 2 1 2 3 4 4 3 2 5 5 5 6 7 11 9 9 11 9 9 12 12 12 12 12 11 11 12 13 14 14 14 15 16 16 17 16 16 16 17 17 18 18 19
3 2 1 3 3 4 4 4 3 4 3 5 6 8 6 7 8 9 8 9 12 12 12 13 15 13 12 12 14 15 14 14 14 15 15 16 17 17 16 16 17 17 17 17
2 2 1 4 5 4 5 6 6 4 4 5 6 6 7 9 10 9 6 7 10 12 12 13 13 12 11 11 13 14 14 13 14 14 15 15 16 17 17 18 18 17 16 16
5 4 2 2 6 5 3 2 4 2 6 6 6 7 8 8 8 2 4 6 8 9 10 10 11 12 10 9 11 12 12 12 13 13 13 14 15 16 16 16 16 15 13 13
3 5 3 2 3 9 4 3 4 2 5 3 4 7 7 6 6 1 4 5 5 5 6 7 8 8 10 11 12 13 12 12 13 14 14 14 14 15 15 15 15 14 12 11
6 5 5 4 1 6 2 4 4 3 5 4 3 6 6 6 7 3 4 5 5 5 6 7 8 8 10 10 11 12 12 12 13 14 14 13 13 14 13 13 14 14 13 13
1 2 4 4 6 8 4 4 5 2 4 2 2 3 2 2 3 4 5 6 6 6 7 8 8 9 10 11 11 12 12 12 14 14 14 13 13 13 11 11 12 13 14 14
8 6 6 5 4 8 5 7 6 6 2 1 1 1 1 2 3 5 6 7 8 9 9 8 9 10 10 10 10 12 13 13 13 14 14 13 13 12 13 11 11 11 11 12
7 8 6 9 7 2 5 6 4 3 1 2 3 2 2 1 2 4 6 7 7 9 9 8 9 11 10 9 9 12 14 13 14 14 14 13 14 11 11 10 9 9 9 9
5 4 4 5 6 5 3 3 3 4 4 5 5 4 3 1 2 4 6 7 8 8 8 9 10 11 12 10 13 12 14 14 14 15 14 13 12 11 9 10 9 8 8 9
7 7 4 5 4 2 3 4 5 5 7 7 6 5 4 2 2 3 5 6 8 10 10 10 10 12 13 13 14 15 14 13 14 15 14 14 13 11 10 10 8 11 8 11
6 8 8 7 6 6 5 5 7 7 6 6 6 5 3 3 2 4 5 5 6 9 10 12 12 14 14 14 15 15 14 13 14 15 15 14 13 12 12 11 11 14 14 17
Wind_Direction
29 52 31 348 359 180 159 115 87 69 97 80 93 95 75 42 47 37 25 17 9 359 347 356 4 2 360 1 1 359 357 354 354 353 350 345 340 339 336 337 341 337 337 337
46 26 326 312 17 70 109 105 102 103 92 98 104 95 73 44 51 38 20 9 357 351 354 358 0 360 357 354 355 356 355 351 354 353 346 340 333 332 333 335 333 334 336 333
92 340 339 41 33 42 57 121 162 145 83 98 118 101 88 42 51 38 18 1 356 357 349 353 358 356 354 352 352 352 350 349 353 353 347 344 339 338 340 337 334 335 333 330
71 10 30 47 34 21 317 294 255 183 149 177 158 171 194 187 20 15 0 353 349 347 346 353 357 355 353 349 347 349 348 349 355 355 350 349 345 340 336 332 327 327 326 324
43 15 27 33 358 342 282 318 265 159 147 108 131 146 205 293 6 352 341 336 333 337 343 351 355 353 350 347 350 350 346 351 355 352 349 346 341 338 333 331 327 327 322 315
23 35 48 351 336 340 315 22 78 60 84 123 284 195 231 236 346 316 323 327 327 334 343 347 349 351 348 351 355 350 347 350 352 350 348 345 341 338 335 334 332 331 327 323
13 21 3 5 10 4 24 41 19 6 1 264 122 133 202 178 193 279 313 319 323 333 342 341 346 353 353 356 357 350 347 348 350 348 347 344 343 338 334 332 329 328 329 330
42 355 351 3 37 10 32 76 104 277 275 288 349 202 215 184 219 273 294 305 316 329 335 338 346 351 351 355 356 351 349 347 347 346 344 341 343 339 333 330 324 324 327 326
31 309 331 359 5 56 73 71 126 165 279 281 269 173 236 229 308 303 301 312 324 335 339 344 353 356 353 355 356 349 346 345 345 343 340 340 341 338 335 330 327 329 328 327
30 309 327 327 36 32 98 115 73 64 334 303 301 239 204 279 302 310 317 324 331 344 348 358 4 2 355 351 350 345 344 343 340 340 340 341 337 337 337 335 334 331 330 330
36 329 326 22 38 353 37 57 78 94 176 241 299 292 171 234 297 311 314 321 337 345 350 360 3 1 350 345 348 345 346 344 343 341 339 337 337 338 339 338 334 332 331 332
60 106 323 311 348 353 116 117 127 165 267 211 238 272 174 197 299 310 316 327 340 342 345 351 356 353 347 344 346 346 346 345 343 340 338 337 337 339 339 337 335 334 334 335
84 93 12 350 305 7 39 55 149 134 144 194 219 276 214 318 327 333 332 335 331 343 343 346 352 348 344 342 343 343 344 343 342 341 339 338 338 338 337 336 335 336 336 337
103 104 182 242 267 302 298 284 161 140 186 236 237 279 313 331 333 331 334 330 334 348 341 345 346 342 340 341 341 339 340 341 342 342 340 339 338 336 335 336 337 338 339 339
92 133 255 268 360 293 250 244 188 172 188 212 263 283 296 306 315 316 327 338 345 346 344 348 346 341 339 342 341 340 338 339 340 340 341 340 337 335 336 338 341 340 340 341
67 113 341 273 322 298 242 208 181 176 199 242 274 283 269 299 316 325 336 348 347 343 345 347 343 340 339 341 342 339 335 335 337 337 337 338 339 340 339 340 343 342 341 340
87 112 358 287 321 354 275 205 181 203 224 232 255 262 301 320 327 331 352 2 348 343 345 344 339 335 332 336 338 333 331 330 335 335 335 337 339 340 342 344 344 342 340 340
128 113 113 325 12 293 283 123 156 242 271 249 245 273 301 310 316 23 53 4 345 342 340 334 332 331 325 326 331 328 327 330 334 334 334 336 337 338 339 344 343 340 337 338
118 130 110 77 313 282 295 229 178 213 285 258 247 291 313 332 317 125 50 9 342 334 327 322 323 318 320 325 329 329 328 331 335 337 336 335 335 337 338 343 340 338 336 339
61 90 111 120 271 268 270 160 133 109 299 275 268 306 329 351 337 336 22 355 343 337 327 321 320 320 322 320 326 328 328 331 334 335 333 331 332 334 334 341 338 338 341 345
144 93 137 171 231 267 234 144 114 125 273 298 340 344 353 318 288 339 357 349 346 336 322 320 321 321 318 318 324 325 325 325 326 328 329 330 330 326 332 336 334 336 343 343
186 174 189 163 213 265 196 141 173 215 234 7 51 73 357 309 337 344 343 339 339 332 325 322 323 321 317 315 321 320 320 318 320 322 323 324 323 323 333 329 326 331 336 338
204 194 188 193 213 257 176 180 186 162 123 92 123 102 86 22 329 330 331 330 329 326 323 325 320 318 316 313 316 315 315 315 318 318 316 314 315 314 315 318 319 325 329 333
248 178 180 243 259 237 210 161 104 84 109 116 115 109 109 130 321 333 332 333 331 327 328 329 325 321 317 316 318 312 312 315 315 313 312 311 311 307 304 312 318 320 320 321
224 174 196 251 260 163 164 145 124 109 112 111 101 99 106 106 4 339 322 322 326 331 331 329 326 320 318 318 315 314 315 313 312 311 309 310 310 302 298 299 298 306 302 308
191 178 179 216 202 164 170 142 137 140 140 134 127 113 85 69 14 334 320 317 321 327 329 326 322 319 316 316 313 311 311 312 311 313 313 313 313 311 310 306 301 298 308 317
Height
1552 1558 1567 1566 1564 1561 1562 1566 1570 1577 1581 1588 1596 1603 1606 1604 1601 1599 1597 1595 1592 1589 1586 1581 1576 1571 1565 1559 1553 1546 1540 1534 1528 1521 1515 1510 1505 1500 1496 1492 1489 1485 1481 1477
1563 1568 1568 1565 1563 1562 1562 1568 1572 1581 1584 1591 1601 1606 1606 1605 1604 1603 1601 1597 1593 1589 1584 1579 1575 1570 1564 1558 1551 1545 1538 1532 1527 1521 1515 1509 1504 1498 1493 1489 1484 1480 1476 1472
1569 1571 1567 1567 1569 1567 1566 1568 1569 1575 1588 1593 1599 1608 1608 1607 1605 1603 1600 1597 1594 1590 1584 1580 1575 1570 1564 1557 1551 1545 1538 1532 1526 1519 1512 1505 1499 1493 1488 1483 1479 1475 1470 1466
1571 1570 1570 1571 1572 1572 1571 1567 1568 1571 1582 1593 1594 1607 1610 1606 1604 1601 1599 1596 1593 1589 1585 1580 1575 1569 1562 1556 1550 1544 1537 1531 1524 1517 1509 1502 1496 1490 1484 1479 1474 1469 1465 1461
1574 1573 1573 1574 1574 1573 1571 1569 1569 1571 1578 1587 1590 1599 1607 1604 1604 1603 1600 1597 1593 1589 1585 1580 1575 1569 1562 1555 1548 1542 1536 1529 1522 1515 1508 1501 1495 1489 1482 1476 1470 1465 1459 1455
1575 1574 1574 1575 1573 1572 1571 1570 1571 1577 1580 1582 1588 1591 1603 1605 1604 1603 1600 1597 1593 1589 1584 1580 1574 1567 1560 1553 1547 1540 1533 1526 1520 1513 1506 1499 1493 1486 1479 1473 1467 1461 1456 1451
1579 1577 1577 1575 1575 1574 1574 1579 1583 1581 1583 1582 1593 1596 1605 1603 1602 1602 1599 1596 1592 1588 1583 1577 1570 1563 1557 1551 1544 1537 1531 1524 1517 1510 1503 1497 1491 1484 1478 1472 1466 1460 1454 1447
1584 1586 1583 1580 1580 1580 1581 1583 1593 1595 1593 1591 1591 1597 1606 1602 1601 1600 1598 1595 1591 1586 1581 1576 1569 1563 1556 1550 1543 1536 1529 1522 1515 1508 1501 1495 1489 1482 1476 1471 1466 1460 1453 1446
1592 1587 1584 1582 1580 1580 1581 1591 1591 1598 1597 1600 1593 1602 1603 1601 1600 1598 1595 1592 1588 1584 1579 1574 1568 1562 1556 1549 1542 1536 1528 1521 1513 1506 1499 1493 1487 1480 1474 1468 1462 1457 1450 1443
1593 1592 1587 1585 1582 1585 1587 1591 1598 1598 1598 1595 1590 1598 1603 1602 1600 1596 1592 1589 1585 1582 1577 1572 1566 1561 1555 1549 1542 1535 1527 1520 1512 1505 1498 1492 1485 1478 1471 1464 1458 1452 1446 1440
1593 1596 1592 1589 1591 1592 1590 1593 1599 1607 1606 1609 1605 1598 1601 1600 1598 1595 1591 1588 1584 1580 1575 1570 1565 1560 1554 1547 1540 1533 1526 1518 1511 1504 1497 1490 1483 1476 1469 1462 1455 1449 1443 1437
1596 1600 1597 1593 1593 1592 1592 1593 1599 1605 1607 1613 1616 1605 1598 1598 1596 1594 1590 1587 1583 1579 1575 1569 1564 1558 1551 1544 1538 1531 1524 1517 1509 1503 1496 1489 1482 1475 1468 1460 1454 1447 1441 1435
1596 1599 1596 1592 1596 1595 1595 1595 1597 1604 1609 1614 1615 1605 1598 1596 1594 1592 1589 1585 1582 1577 1573 1568 1562 1556 1549 1542 1536 1529 1522 1515 1508 1501 1494 1487 1480 1473 1466 1459 1453 1446 1440 1434
1594 1599 1598 1593 1592 1596 1596 1595 1597 1604 1609 1612 1609 1604 1597 1594 1592 1589 1587 1584 1580 1576 1571 1566 1560 1554 1548 1541 1534 1527 1520 1513 1506 1499 1492 1484 1478 1472 1465 1459 1452 1446 1440 1434
1594 1599 1598 1598 1599 1598 1595 1595 1596 1600 1602 1606 1603 1602 1596 1594 1591 1587 1584 1580 1578 1574 1569 1564 1558 1552 1545 1539 1532 1525 1519 1512 1505 1497 1490 1483 1477 1471 1464 1458 1451 1445 1440 1434
1596 1599 1599 1598 1600 1598 1597 1596 1597 1598 1599 1599 1600 1599 1593 1591 1588 1586 1582 1579 1576 1572 1567 1562 1556 1550 1544 1537 1530 1524 1517 1510 1504 1497 1490 1483 1476 1469 1463 1457 1450 1445 1439 1434
1599 1599 1599 1601 1602 1598 1597 1596 1596 1596 1596 1598 1600 1597 1591 1588 1586 1584 1580 1578 1575 1571 1566 1560 1555 1549 1543 1536 1530 1522 1516 1509 1503 1496 1489 1483 1476 1469 1463 1457 1450 1444 1439 1434
1599 1601 1605 1607 1604 1596 1594 1592 1593 1595 1595 1594 1594 1592 1590 1588 1585 1582 1579 1577 1573 1569 1564 1559 1553 1547 1542 1535 1529 1522 1516 1509 1502 1496 1489 1483 1476 1470 1463 1457 1450 1444 1439 1434
1597 1601 1607 1614 1610 1602 1594 1591 1592 1594 1594 1592 1592 1590 1588 1586 1583 1580 1579 1576 1572 1567 1562 1557 1552 1546 1540 1534 1527 1521 1514 1508 1502 1495 1489 1483 1477 1470 1464 1458 1452 1446 1440 1435
1600 1602 1612 1616 1605 1594 1589 1590 1590 1594 1595 1592 1590 1589 1587 1584 1583 1581 1578 1574 1570 1565 1561 1555 1550 1544 1538 1532 1526 1520 1513 1507 1501 1495 1489 1484 1478 1471 1465 1460 1453 1448 1442 1437
1602 1606 1611 1615 1613 1596 1589 1588 1591 1598 1595 1590 1588 1587 1585 1584 1584 1581 1576 1572 1568 1564 1559 1554 1548 1543 1537 1531 1525 1519 1513 1507 1501 1495 1490 1484 1478 1471 1466 1460 1454 1449 1444 1438
1598 1604 1607 1611 1612 1599 1585 1587 1591 1590 1588 1587 1586 1585 1583 1582 1580 1577 1574 1570 1566 1562 1557 1552 1546 1541 1536 1530 1524 1518 1512 1506 1500 1495 1489 1483 1477 1471 1465 1459 1454 1449 1444 1439
1591 1589 1590 1591 1587 1581 1582 1583 1585 1586 1586 1585 1583 1582 1580 1579 1577 1574 1571 1568 1564 1560 1555 1550 1545 1540 1535 1529 1523 1516 1510 1504 1498 1492 1486 1481 1475 1470 1464 1459 1453 1448 1444 1440
1584 1582 1584 1584 1579 1579 1581 1582 1583 1584 1583 1582 1580 1579 1578 1577 1575 1572 1569 1566 1563 1558 1554 1549 1543 1538 1533 1527 1521 1515 1508 1502 1496 1489 1483 1477 1471 1466 1462 1457 1453 1448 1443 1440
1576 1579 1580 1579 1577 1578 1579 1580 1581 1581 1580 1579 1577 1577 1576 1575 1573 1571 1568 1565 1561 1557 1553 1548 1542 1537 1531 1525 1519 1513 1506 1499 1492 1485 1479 1473 1467 1462 1457 1454 1450 1446 1443 1440
1569 1571 1574 1573 1571 1573 1576 1578 1579 1579 1577 1576 1575 1575 1574 1574 1572 1570 1567 1564 1561 1557 1552 1547 1542 1536 1530 1524 1517 1511 1504 1497 1490 1482 1475 1469 1463 1458 1453 1449 1445 1443 1441 1437